Lexington Weather

Lexington, Massachusetts, USA

70°F
8/17/2022 6:03pm 
  • Lexington Conditions: Overcast
  • Temperature: 70.3°F / 21.3°CColder 0.2°F than last hour.
  • Dew Point: 59.4°FIncreased 1.7°Fsince last hour.
  • Relative Humidity: 68%Increased 4.0% since last hour.
  • Wind: Calm, 10-min avg: Calm, gust: None
  • Barometer: 29.85 inFalling 0.03  inHg/hr Falling Slowly
  • Visibility: 10 miles
  • Rain Today: 0.00 in
  •   

Regional Weather Roundup
for Boston, MA

        
000
ASUS41 KBOX 162210
RWRBOX

REGIONAL WEATHER ROUNDUP
NATIONAL WEATHER SERVICE BOSTON/NORTON MA
600 PM EDT TUE AUG 16 2022

NOTE:  "FAIR" INDICATES FEW OR NO CLOUDS BELOW 12,000 FEET WITH NO 
SIGNIFICANT WEATHER AND/OR OBSTRUCTIONS TO VISIBILITY.

MAZALL-162300-
EASTERN MASSACHUSETTS
  
CITY           SKY/WX    TMP DP  RH WIND       PRES   REMARKS
BOSTON         PTSUNNY   71  63  75 NE14      30.04S                  
BEVERLY        PTSUNNY   72  61  68 NE8       30.04S                  
LAWRENCE       MOSUNNY   76  54  46 NE10      30.06S                  
BEDFORD        PTSUNNY   77  52  41 NE16      30.02F                  
BLUE HILL      NOT AVBL                                               
NORWOOD        PTSUNNY   72  32  23 E12       30.03S                  
MARSHFIELD     MOSUNNY   72  64  78 NE8       30.02F                  
PLYMOUTH       PTSUNNY   69  63  81 NE10      30.02F                  
TAUNTON          N/A    N/A N/A N/A MISG      30.01S                  
NEW BEDFORD    CLOUDY    71  63  75 NE10G18   30.00S                  
$$

MAZALL-162300-
CAPE COD AND THE ISLANDS
  
CITY           SKY/WX    TMP DP  RH WIND       PRES   REMARKS
FALMOUTH       MOSUNNY   70  63  78 NE12G20   30.00F                  
HYANNIS        CLOUDY    71  60  68 NE13      29.98F                  
CHATHAM        CLOUDY    70  61  73 NE8G17    30.00F                  
NANTUCKET      CLOUDY    68  64  87 NE14      29.98F                  
MARTHAS VNYRD  CLOUDY    71  63  75 NE12      29.98F                  
$$
 
MAZALL-162300-
CENTRAL AND WESTERN MASSACHUSETTS
  
CITY           SKY/WX    TMP DP  RH WIND       PRES   REMARKS
WORCESTER      PTSUNNY   73  54  51 NE14G21   30.06S                  
FITCHBURG      PTSUNNY   77  51  40 NE9       30.05S                  
ORANGE         PTSUNNY   79  51  37 E10       30.04S                  
SPRINGFIELD    PTSUNNY   79  46  30 E8        29.99R                  
WESTFIELD      CLOUDY    81  52  36 E8G17     30.00S                  
NORTH ADAMS    MOSUNNY   80  52  37 VRB6      30.02F                  
PITTSFIELD     PTSUNNY   79  51  37 MISG      30.02F                  
$$
 
RIZALL-162300-
RHODE ISLAND
  
CITY           SKY/WX    TMP DP  RH WIND       PRES   REMARKS
PROVIDENCE     CLOUDY    75  58  55 NE18      30.01S                  
NEWPORT        CLOUDY    71  60  68 NE13      30.00S                  
BLOCK ISLAND   CLOUDY    70  62  76 E15       29.99F                  
SMITHFIELD     CLOUDY    73  55  53 E12       30.03S                  
WESTERLY       CLOUDY    77  57  50 NE8       29.99S                  
$$
 
CTZALL-162300-
CONNECTICUT
  
CITY           SKY/WX    TMP DP  RH WIND       PRES   REMARKS
BRADLEY INTL   CLOUDY    81  54  39 NE15G21   30.00S                  
HARTFORD       CLOUDY    81  53  37 E6        29.98S                  
BRIDGEPORT     PTSUNNY   77  62  59 E10       29.98S                  
DANBURY        PTSUNNY   84  47  27 NE9       29.99S                  
GROTON         PTSUNNY   81  57  43 NE13      29.97F                  
NEW HAVEN      CLOUDY    79  63  57 SE9       29.99S                  
CHESTER        FAIR      79  52  38 NE8G14    30.00S                  
MERIDEN        CLOUDY    81  48  31 VRB7      29.98S                  
WILLIMANTIC    CLOUDY    78  53  41 E7        30.01S                  
OXFORD         PTSUNNY   79  52  38 E6        30.01S                  
$$

MEZ002-015-021-024-NHZ003-005-008-011-012-014-VTZ005-008-162300-
NORTHERN NEW ENGLAND
  
CITY           SKY/WX    TMP DP  RH WIND       PRES   REMARKS
PORTLAND ME    PTSUNNY   73  55  53 E9        30.08R                  
BANGOR ME      PTSUNNY   77  57  50 NE9       30.06F                  
CONCORD NH     MOSUNNY   78  53  41 E10       30.05S                  
MANCHESTER NH  PTSUNNY   80  55  42 VRB6      30.04S                  
NASHUA NH      PTSUNNY   78  56  46 E10       30.05S                  
PORTSMOUTH NH  PTSUNNY   73  54  50 E9        30.05S                  
JAFFREY NH     PTSUNNY   77  51  40 VRB3      30.07S                  
KEENE NH       PTSUNNY   79  53  40 VRB3        N/A                   
BURLINGTON VT  PTSUNNY   80  56  43 E5        30.07S                  
MT. WASHINGTON PTSUNNY   48  46  93 E31G40      N/A                   
$$

NYZ052-076-162300-
EASTERN NEW YORK
  
CITY           SKY/WX    TMP DP  RH WIND       PRES   REMARKS
ALBANY         PTSUNNY   84  53  34 NE8       30.00S                  
NEW YORK CITY  PTSUNNY   80  57  45 S6        29.97S                  
$$
 
ANZALL-162300-
MARINE OBSERVATIONS
  
STATION/POSITION TIME  TEMP    WIND        PRES    VSBY  WAVE
                       AIR SEA DIR/SP/G                  HT/PER
                 (UTC) (F)     (DEG/KT/KT) (MB)    (MI)  (FT/S)
BOSTON BUOY      NOT AVBL
BUZZARDS BAY     NOT AVBL
NANTUCKET SOUND  NOT AVBL
MASS BAY-STELLWA NOT AVBL
ISLE OF SHOALS   NOT AVBL
S OF BLOCK IS    NOT AVBL
$$

......................KEY.........................
  SKY/WX - SKY CONDITION/PRESENT WEATHER
  TMP    - TEMPERATURE IN FAHRENHEIT
  DWPT   - DEWPOINT IN FAHRENHEIT
  RH     - RELATIVE HUMIDITY IN PERCENT
  WIND   - DIRECTION AND SPEED IN MPH
  PRES   - MEAN SEA LEVEL PRESSURE IN INCHES OF HG
  WCI    - WIND CHILL INDEX
  VSB    - VISIBILITY IN MILES
  HX     - HEAT INDEX
  TC     - TEMPERATURE IN CELSIUS
  VRB    - VARIABLE WIND DIRECTION
  N/A    - NOT AVAILABLE
  
      

Other recent Regional Weather Roundups

Wed Aug 17, 5:10pm

Wed Aug 17, 4:10pm

Wed Aug 17, 3:10pm

Wed Aug 17, 2:10pm

Wed Aug 17, 1:10pm

Wed Aug 17, 12:10pm

Wed Aug 17, 11:10am

Wed Aug 17, 10:10am

Wed Aug 17, 9:10am

Wed Aug 17, 8:10am

Wed Aug 17, 7:10am

Wed Aug 17, 6:10am

Wed Aug 17, 5:10am

Wed Aug 17, 4:10am

Wed Aug 17, 3:10am

Wed Aug 17, 2:10am

Wed Aug 17, 1:10am

Wed Aug 17, 12:10am

Tue Aug 16, 11:10pm

Tue Aug 16, 10:10pm

Tue Aug 16, 9:10pm

Tue Aug 16, 8:10pm

Tue Aug 16, 7:10pm

Tue Aug 16, 5:10pm

Tue Aug 16, 4:10pm

Tue Aug 16, 3:10pm

Tue Aug 16, 2:10pm

Tue Aug 16, 1:10pm

Tue Aug 16, 12:10pm

Tue Aug 16, 11:10am

Tue Aug 16, 10:10am

Tue Aug 16, 9:10am

Tue Aug 16, 8:10am

Tue Aug 16, 7:10am

Tue Aug 16, 6:10am

Tue Aug 16, 5:10am

Tue Aug 16, 4:10am

Tue Aug 16, 3:10am

Tue Aug 16, 2:10am

Tue Aug 16, 1:10am

Tue Aug 16, 12:10am

Mon Aug 15, 11:10pm

Mon Aug 15, 10:10pm

Mon Aug 15, 9:10pm

Mon Aug 15, 8:10pm

Mon Aug 15, 7:10pm

Mon Aug 15, 6:10pm

Mon Aug 15, 5:10pm

Mon Aug 15, 4:10pm

Mon Aug 15, 3:10pm

Mon Aug 15, 2:10pm

Mon Aug 15, 1:10pm

Mon Aug 15, 12:10pm

Mon Aug 15, 11:10am

Mon Aug 15, 10:10am

Mon Aug 15, 9:10am

Mon Aug 15, 8:10am

Mon Aug 15, 7:10am

Mon Aug 15, 6:10am

Mon Aug 15, 5:10am

Mon Aug 15, 4:10am

Mon Aug 15, 3:10am

Mon Aug 15, 2:10am

Mon Aug 15, 1:10am

Mon Aug 15, 12:10am

Sun Aug 14, 11:10pm

Sun Aug 14, 10:10pm

Sun Aug 14, 9:10pm

Sun Aug 14, 8:10pm

Sun Aug 14, 7:10pm

Sun Aug 14, 6:10pm

Sun Aug 14, 5:10pm

Sun Aug 14, 4:10pm

Sun Aug 14, 3:10pm

Sun Aug 14, 2:10pm

Sun Aug 14, 1:10pm

Sun Aug 14, 12:10pm

Sun Aug 14, 11:10am

Sun Aug 14, 10:10am

Sun Aug 14, 9:10am

Sun Aug 14, 8:10am

Sun Aug 14, 7:10am

Sun Aug 14, 6:10am

Sun Aug 14, 5:10am

Sun Aug 14, 4:10am

Sun Aug 14, 3:10am

Sun Aug 14, 2:10am

Sun Aug 14, 1:10am

Sun Aug 14, 12:10am

Sat Aug 13, 11:10pm

Sat Aug 13, 10:10pm

Sat Aug 13, 9:10pm

Sat Aug 13, 8:10pm

Sat Aug 13, 7:10pm

Sat Aug 13, 6:10pm

Sat Aug 13, 5:10pm

Sat Aug 13, 4:10pm

Sat Aug 13, 3:10pm

Sat Aug 13, 2:10pm

Sat Aug 13, 1:10pm

Sat Aug 13, 12:10pm

Sat Aug 13, 11:10am

Sat Aug 13, 10:10am

Sat Aug 13, 9:10am

Sat Aug 13, 8:10am

Sat Aug 13, 7:10am

Sat Aug 13, 6:10am

Sat Aug 13, 5:10am

Sat Aug 13, 4:10am

Sat Aug 13, 3:10am

Sat Aug 13, 2:10am

Sat Aug 13, 1:10am

Sat Aug 13, 12:10am

Fri Aug 12, 11:10pm

Fri Aug 12, 10:10pm

Fri Aug 12, 9:10pm

Fri Aug 12, 8:10pm

Fri Aug 12, 7:10pm

Fri Aug 12, 6:10pm

Fri Aug 12, 5:10pm

Fri Aug 12, 4:10pm

Fri Aug 12, 3:10pm

Fri Aug 12, 2:10pm

Fri Aug 12, 1:10pm

Fri Aug 12, 12:10pm

Fri Aug 12, 11:10am

Fri Aug 12, 10:10am

Fri Aug 12, 9:10am

Fri Aug 12, 8:10am

Fri Aug 12, 7:10am

Fri Aug 12, 6:10am

Fri Aug 12, 5:10am

Fri Aug 12, 4:10am

Fri Aug 12, 3:10am

Fri Aug 12, 2:10am

Fri Aug 12, 1:10am

Fri Aug 12, 12:10am

Thu Aug 11, 11:10pm

Thu Aug 11, 10:10pm

Thu Aug 11, 9:10pm

Thu Aug 11, 8:10pm

Thu Aug 11, 7:10pm

Thu Aug 11, 6:10pm

Thu Aug 11, 5:10pm

Thu Aug 11, 4:10pm

Thu Aug 11, 3:10pm

Thu Aug 11, 2:10pm

Thu Aug 11, 1:10pm

Thu Aug 11, 12:10pm

Thu Aug 11, 11:10am

Thu Aug 11, 10:10am

Thu Aug 11, 9:10am

Thu Aug 11, 8:10am

Thu Aug 11, 7:10am

Thu Aug 11, 6:10am

Thu Aug 11, 5:10am

Thu Aug 11, 4:10am

Thu Aug 11, 3:10am

Thu Aug 11, 2:10am

Thu Aug 11, 1:10am

Thu Aug 11, 12:10am

Wed Aug 10, 11:10pm

Wed Aug 10, 10:10pm

Wed Aug 10, 9:10pm

Wed Aug 10, 8:10pm

Wed Aug 10, 7:10pm

Wed Aug 10, 6:10pm

Meta data:

ID: 5bafb9e9-d402-43a5-a590-1e935047d7a2
Link: https://api.weather.gov/products/5bafb9e9-d402-43a5-a590-1e935047d7a2